Language: 


Des rapports , des résumés tant et plus, au choix de chacun....


Données Historiques de Météogheer
Journalier Rapport pour Mars 8, 2018 Unitée:  Métrique    Impériale   Les deux
Suivant Jour »
Journalier Hebdomadaire Mensuel Annuel Sur mesure
  Max: Min: Moyenne:
Température: 10.6 °C 2.1 °C 5.9 °C
Point de rosée: 7.0 °C 1.0 °C 3.7 °C
Humidité: 98% 57% 85%
Vent: 53.6km/h 0.0km/h 16.5km/h
Rafales: 53.6km/h - -
Vent- - SW
Pression: 1002.9 hPa 996.2 hPa -
Pluie: 5.3 mm    
Historical Graphs
 
 
Données tabulaires pour Mars 8, 2018
Heure Température Point de rosée Pression Vent Vent Rafales Humidité Pluie Taux (Horaire) Conditions
00:00 3.7 °C 4.0 °C 999.9 hPa WSW 7.9 km/h 13.7 km/h 98% 0.0 mm
00:10 3.7 °C 4.0 °C 999.9 hPa SW 8.7 km/h 11.9 km/h 98% 0.0 mm
00:20 3.6 °C 3.0 °C 998.9 hPa SW 3.2 km/h 9.7 km/h 97% 0.0 mm
00:30 3.6 °C 3.0 °C 999.9 hPa Calm   13.0 km/h 97% 0.0 mm
00:40 3.5 °C 3.0 °C 999.9 hPa Calm   9.3 km/h 96% 0.0 mm
00:50 3.3 °C 3.0 °C 999.9 hPa SSW 6.4 km/h 6.9 km/h 96% 0.0 mm
01:00 3.1 °C 3.0 °C 999.9 hPa SSW 6.4 km/h 9.3 km/h 95% 0.0 mm
01:10 2.8 °C 3.0 °C 999.9 hPa South 2.6 km/h 2.6 km/h 95% 0.0 mm
01:20 2.5 °C 2.0 °C 998.9 hPa Calm   2.1 km/h 94% 0.0 mm
01:30 2.4 °C 2.0 °C 998.9 hPa Calm   5.5 km/h 95% 0.0 mm
01:40 2.3 °C 2.0 °C 998.9 hPa South 6.4 km/h 6.9 km/h 96% 0.0 mm
01:50 2.3 °C 2.0 °C 999.9 hPa Calm   6.9 km/h 96% 0.0 mm
02:00 2.2 °C 2.0 °C 998.9 hPa Calm   6.9 km/h 96% 0.0 mm
02:10 2.1 °C 2.0 °C 998.9 hPa Calm     96% 0.0 mm
02:20 2.2 °C 2.0 °C 998.9 hPa Calm   6.9 km/h 96% 0.0 mm
02:30 2.2 °C 2.0 °C 998.9 hPa Calm   4.7 km/h 96% 0.0 mm
02:40 2.2 °C 2.0 °C 998.9 hPa Calm     96% 0.0 mm
02:50 2.2 °C 2.0 °C 998.9 hPa Calm   7.2 km/h 96% 0.0 mm
03:00 2.3 °C 2.0 °C 998.9 hPa SSE 2.6 km/h 6.9 km/h 96% 0.0 mm
03:10 2.2 °C 2.0 °C 998.9 hPa Calm   5.8 km/h 96% 0.0 mm
03:20 2.3 °C 2.0 °C 998.9 hPa South 6.4 km/h 10.1 km/h 96% 0.0 mm
03:40 2.3 °C 2.0 °C 998.9 hPa South 6.9 km/h 12.2 km/h 97% 0.0 mm
03:50 2.4 °C 2.0 °C 998.9 hPa Calm   10.1 km/h 97% 0.0 mm
04:00 2.4 °C 2.0 °C 998.9 hPa Calm   9.7 km/h 97% 0.0 mm
04:10 2.4 °C 2.0 °C 998.9 hPa South 6.4 km/h 9.7 km/h 97% 0.0 mm
04:20 2.4 °C 2.0 °C 997.9 hPa Calm   9.3 km/h 96% 0.0 mm
04:30 2.5 °C 3.0 °C 997.9 hPa South 5.8 km/h 12.2 km/h 97% 0.0 mm
04:40 2.6 °C 3.0 °C 997.9 hPa South 8.7 km/h 10.5 km/h 97% 0.0 mm
04:50 2.6 °C 3.0 °C 997.9 hPa Calm   12.6 km/h 97% 0.0 mm
05:00 2.7 °C 3.0 °C 997.9 hPa SSE 7.9 km/h 12.6 km/h 97% 0.0 mm
05:10 2.8 °C 3.0 °C 997.9 hPa SSW 9.7 km/h 13.0 km/h 98% 0.0 mm
05:15 2.8 °C 3.0 °C 997.9 hPa South 10.8 km/h 13.7 km/h 98% 0.0 mm
05:20 2.9 °C 3.0 °C 997.9 hPa South 8.7 km/h 13.7 km/h 97% 0.0 mm
05:30 2.9 °C 3.0 °C 997.9 hPa South 12.6 km/h 13.7 km/h 97% 0.0 mm
05:40 3.1 °C 3.0 °C 997.9 hPa South 10.5 km/h 12.6 km/h 97% 0.0 mm
05:50 3.2 °C 3.0 °C 996.8 hPa South 6.4 km/h 15.4 km/h 97% 0.0 mm
06:00 3.3 °C 3.0 °C 996.8 hPa South 3.5 km/h 16.6 km/h 98% 0.0 mm
06:10 3.4 °C 3.0 °C 996.8 hPa SSW 8.7 km/h 15.8 km/h 98% 0.0 mm
06:20 3.5 °C 4.0 °C 996.8 hPa SSW 10.1 km/h 13.7 km/h 98% 0.0 mm
06:30 3.7 °C 4.0 °C 996.8 hPa SSW 10.5 km/h 14.0 km/h 98% 0.0 mm
06:40 3.9 °C 4.0 °C 996.8 hPa South 6.9 km/h 16.6 km/h 98% 0.0 mm
06:50 4.2 °C 4.0 °C 996.8 hPa South 13.0 km/h 20.1 km/h 98% 0.0 mm
07:00 4.4 °C 4.0 °C 996.2 hPa SSW 15.8 km/h 19.1 km/h 98% 0.0 mm
07:10 4.6 °C 5.0 °C 996.2 hPa SSW 10.1 km/h 16.9 km/h 98% 0.0 mm
07:20 4.8 °C 5.0 °C 996.2 hPa SW 14.0 km/h 24.5 km/h 98% 0.0 mm
07:30 5.0 °C 5.0 °C 996.8 hPa SSW 10.5 km/h 24.8 km/h 97% 0.0 mm
07:40 5.1 °C 5.0 °C 996.8 hPa South 13.7 km/h 28.0 km/h 96% 0.0 mm
07:50 5.2 °C 5.0 °C 996.8 hPa SW 16.9 km/h 24.8 km/h 95% 0.0 mm
08:00 5.3 °C 5.0 °C 996.8 hPa SSW 15.4 km/h 23.8 km/h 94% 0.0 mm
08:10 5.3 °C 5.0 °C 996.8 hPa South 16.6 km/h 23.3 km/h 93% 0.0 mm
08:20 5.4 °C 5.0 °C 996.8 hPa South 15.4 km/h 27.4 km/h 93% 0.0 mm
08:30 5.4 °C 5.0 °C 996.8 hPa South 13.7 km/h 23.3 km/h 93% 0.0 mm
08:40 5.6 °C 5.0 °C 996.8 hPa SW 14.8 km/h 27.7 km/h 94% 0.0 mm
08:50 5.8 °C 5.0 °C 996.8 hPa SW 21.9 km/h 26.7 km/h 94% 0.0 mm
09:00 6.0 °C 5.0 °C 996.8 hPa SSW 16.9 km/h 27.4 km/h 93% 0.0 mm
09:10 6.1 °C 5.0 °C 996.8 hPa SW 19.8 km/h 32.3 km/h 93% 0.0 mm
09:20 6.1 °C 5.0 °C 996.2 hPa SSW 13.7 km/h 26.2 km/h 93% 0.0 mm
09:25 6.1 °C 5.0 °C 996.2 hPa SSW 16.3 km/h 20.9 km/h 93% 0.0 mm
09:30 6.1 °C 5.0 °C 996.8 hPa SSW 11.9 km/h 20.9 km/h 94% 0.0 mm
09:40 6.0 °C 6.0 °C 996.8 hPa SSW 10.1 km/h 23.3 km/h 95% 0.3 mm
09:45 6.0 °C 6.0 °C 996.8 hPa SSW 16.6 km/h 23.0 km/h 96% 0.5 mm
09:50 6.1 °C 6.0 °C 996.8 hPa SSW 10.5 km/h 20.9 km/h 97% 1.0 mm
10:00 6.1 °C 6.0 °C 996.8 hPa SSW 12.6 km/h 23.3 km/h 98% 1.5 mm
10:10 6.3 °C 6.0 °C 996.8 hPa SSW 15.8 km/h 19.8 km/h 98% 2.3 mm
10:20 6.3 °C 6.0 °C 996.8 hPa SSW 16.6 km/h 22.7 km/h 98% 2.5 mm
10:30 6.4 °C 6.0 °C 996.8 hPa SSW 14.0 km/h 27.4 km/h 98% 2.8 mm
10:40 6.5 °C 7.0 °C 996.8 hPa SW 17.7 km/h 23.0 km/h 98% 2.5 mm
10:50 6.6 °C 7.0 °C 996.2 hPa SW 16.9 km/h 27.7 km/h 98% 2.3 mm
11:00 6.6 °C 7.0 °C 996.8 hPa SW 20.9 km/h 23.3 km/h 98% 1.5 mm
11:10 6.7 °C 7.0 °C 996.8 hPa SW 22.4 km/h 27.7 km/h 98% 1.3 mm
11:20 6.7 °C 7.0 °C 996.8 hPa SSW 21.9 km/h 24.5 km/h 98% 1.0 mm
11:30 6.8 °C 7.0 °C 996.8 hPa SW 15.8 km/h 28.0 km/h 98% 1.0 mm
11:40 7.0 °C 7.0 °C 996.8 hPa WSW 16.3 km/h 23.8 km/h 97% 1.0 mm
11:50 7.1 °C 7.0 °C 996.8 hPa SW 16.6 km/h 24.5 km/h 96% 0.5 mm
12:00 7.4 °C 7.0 °C 996.8 hPa WSW 16.3 km/h 21.2 km/h 95% 0.5 mm
12:10 7.7 °C 7.0 °C 996.8 hPa SW 17.2 km/h 24.8 km/h 94% 0.3 mm
12:20 7.7 °C 6.0 °C 996.8 hPa SSW 14.0 km/h 20.6 km/h 92% 0.3 mm
12:25 7.7 °C 6.0 °C 996.8 hPa SW 16.9 km/h 25.9 km/h 91% 0.0 mm
12:30 7.7 °C 6.0 °C 996.8 hPa WSW 20.6 km/h 25.9 km/h 90% 0.0 mm
12:40 7.6 °C 6.0 °C 996.8 hPa SW 21.2 km/h 27.7 km/h 88% 0.0 mm
12:50 6.5 °C 5.0 °C 996.8 hPa WSW 36.7 km/h 53.6 km/h 86% 0.3 mm
13:00 5.7 °C 4.0 °C 996.8 hPa West 24.8 km/h 40.7 km/h 90% 0.8 mm
13:10 6.0 °C 5.0 °C 996.8 hPa WSW 29.9 km/h 37.0 km/h 94% 1.3 mm
13:20 6.1 °C 5.0 °C 996.8 hPa WSW 21.2 km/h 36.0 km/h 94% 1.5 mm
13:30 6.8 °C 6.0 °C 996.8 hPa WSW 22.7 km/h 36.4 km/h 95% 1.5 mm
13:40 6.9 °C 6.0 °C 996.8 hPa WSW 21.6 km/h 37.5 km/h 92% 1.5 mm
13:45 8.0 °C 7.0 °C 996.8 hPa West 32.8 km/h 41.7 km/h 93% 1.5 mm
13:50 8.4 °C 7.0 °C 996.8 hPa WSW 32.0 km/h 41.7 km/h 90% 1.3 mm
13:55 8.6 °C 7.0 °C 996.8 hPa WSW 37.8 km/h 39.6 km/h 90% 0.8 mm
14:00 9.1 °C 7.0 °C 996.8 hPa West 35.2 km/h 41.4 km/h 84% 0.8 mm
14:05 9.3 °C 7.0 °C 996.8 hPa West 21.2 km/h 41.4 km/h 84% 0.3 mm
14:10 9.9 °C 7.0 °C 996.8 hPa West 33.1 km/h 38.5 km/h 83% 0.3 mm
14:20 9.9 °C 6.0 °C 996.8 hPa WSW 37.5 km/h 43.9 km/h 78% 0.0 mm
14:25 9.7 °C 5.0 °C 996.8 hPa WSW 20.6 km/h 43.9 km/h 73% 0.0 mm
14:30 9.8 °C 5.0 °C 996.8 hPa West 42.5 km/h 43.1 km/h 72% 0.0 mm
14:35 9.6 °C 5.0 °C 996.8 hPa WSW 35.6 km/h 46.0 km/h 70% 0.0 mm
14:40 9.8 °C 5.0 °C 996.8 hPa WSW 35.2 km/h 46.0 km/h 71% 0.0 mm
14:45 10.0 °C 4.0 °C 996.8 hPa WSW 38.5 km/h 47.1 km/h 65% 0.0 mm
14:50 9.8 °C 3.0 °C 996.8 hPa WSW 35.2 km/h 47.1 km/h 61% 0.0 mm
14:55 9.7 °C 3.0 °C 996.8 hPa WSW 21.2 km/h 46.5 km/h 61% 0.0 mm
15:00 10.1 °C 4.0 °C 996.2 hPa WSW 32.3 km/h 43.1 km/h 64% 0.0 mm
15:05 10.4 °C 3.0 °C 996.2 hPa WSW 34.6 km/h 49.2 km/h 61% 0.0 mm
15:10 10.6 °C 3.0 °C 996.2 hPa West 42.5 km/h 51.2 km/h 61% 0.0 mm
15:15 10.3 °C 2.0 °C 996.8 hPa West 53.6 km/h 53.6 km/h 57% 0.0 mm
15:20 9.9 °C 3.0 °C 996.8 hPa WSW 23.8 km/h 53.6 km/h 61% 0.0 mm
15:25 10.3 °C 3.0 °C 996.8 hPa West 38.1 km/h 53.6 km/h 61% 0.0 mm
15:30 10.2 °C 3.0 °C 996.8 hPa WSW 28.8 km/h 41.0 km/h 60% 0.0 mm
15:40 9.4 °C 2.0 °C 996.8 hPa WSW 32.0 km/h 43.9 km/h 60% 0.0 mm
15:50 9.9 °C 3.0 °C 996.8 hPa WNW 42.2 km/h 46.0 km/h 62% 0.0 mm
16:00 9.9 °C 4.0 °C 997.9 hPa West 29.1 km/h 42.2 km/h 66% 0.0 mm
16:10 9.6 °C 2.0 °C 997.9 hPa WSW 38.5 km/h 44.6 km/h 58% 0.0 mm
16:20 9.7 °C 3.0 °C 997.9 hPa West 28.5 km/h 48.3 km/h 62% 0.0 mm
16:30 9.7 °C 3.0 °C 997.9 hPa West 28.5 km/h 45.1 km/h 62% 0.0 mm
16:40 9.8 °C 2.0 °C 997.9 hPa WSW 35.2 km/h 46.0 km/h 58% 0.0 mm
16:50 9.5 °C 2.0 °C 997.9 hPa West 42.5 km/h 42.8 km/h 57% 0.0 mm
16:55 9.5 °C 2.0 °C 997.9 hPa West 38.9 km/h 42.5 km/h 58% 0.0 mm
17:00 9.3 °C 2.0 °C 998.9 hPa WSW 37.8 km/h 39.6 km/h 58% 0.0 mm
17:05 9.3 °C 2.0 °C 998.9 hPa WSW 23.3 km/h 39.3 km/h 58% 0.0 mm
17:10 9.3 °C 2.0 °C 998.9 hPa West 20.6 km/h 37.8 km/h 58% 0.0 mm
17:15 9.2 °C 2.0 °C 998.9 hPa WSW 28.0 km/h 42.5 km/h 58% 0.0 mm
17:20 9.1 °C 1.0 °C 998.9 hPa West 19.5 km/h 42.5 km/h 57% 0.0 mm
17:30 9.0 °C 2.0 °C 997.9 hPa West 23.3 km/h 28.8 km/h 61% 0.0 mm
17:35 8.9 °C 3.0 °C 997.9 hPa West 24.8 km/h 28.0 km/h 63% 0.0 mm
17:40 8.8 °C 2.0 °C 997.9 hPa WSW 23.3 km/h 31.7 km/h 62% 0.0 mm
17:45 8.6 °C 2.0 °C 997.9 hPa West 23.8 km/h 36.7 km/h 60% 0.0 mm
17:50 8.5 °C 2.0 °C 997.9 hPa WSW 15.8 km/h 36.7 km/h 62% 0.0 mm
18:00 8.3 °C 2.0 °C 998.9 hPa WSW 24.5 km/h 29.9 km/h 63% 0.0 mm
18:10 7.8 °C 2.0 °C 998.9 hPa West 16.6 km/h 28.0 km/h 66% 0.0 mm
18:15 7.6 °C 2.0 °C 998.9 hPa WSW 24.8 km/h 28.0 km/h 67% 0.0 mm
18:20 7.4 °C 2.0 °C 998.9 hPa SW 20.1 km/h 27.4 km/h 68% 0.0 mm
18:25 7.3 °C 2.0 °C 998.9 hPa West 19.5 km/h 28.0 km/h 69% 0.0 mm
18:30 7.3 °C 2.0 °C 999.9 hPa West 16.9 km/h 28.5 km/h 69% 0.0 mm
18:40 7.0 °C 2.0 °C 999.9 hPa WSW 20.9 km/h 29.1 km/h 71% 0.0 mm
18:50 6.8 °C 2.0 °C 999.9 hPa WSW 23.0 km/h 29.9 km/h 72% 0.0 mm
18:55 6.7 °C 2.0 °C 999.9 hPa WSW 17.2 km/h 36.4 km/h 72% 0.0 mm
19:00 6.7 °C 2.0 °C 1000.9 hPa WSW 13.7 km/h 36.4 km/h 72% 0.0 mm
19:10 6.5 °C 3.0 °C 1000.9 hPa WSW 18.0 km/h 26.7 km/h 74% 0.0 mm
19:20 6.2 °C 3.0 °C 999.9 hPa WSW 15.4 km/h 20.9 km/h 75% 0.0 mm
19:30 6.0 °C 2.0 °C 1000.9 hPa WSW 16.9 km/h 19.5 km/h 76% 0.0 mm
19:40 5.6 °C 2.0 °C 1000.9 hPa WSW 10.1 km/h 16.9 km/h 78% 0.0 mm
19:50 5.4 °C 3.0 °C 1000.9 hPa WSW 10.1 km/h 17.2 km/h 80% 0.0 mm
20:00 5.3 °C 3.0 °C 1001.9 hPa WSW 16.3 km/h 17.7 km/h 82% 0.0 mm
20:10 5.0 °C 3.0 °C 1001.9 hPa WSW 11.9 km/h 15.4 km/h 83% 0.0 mm
20:20 4.8 °C 2.0 °C 1001.9 hPa Calm   14.0 km/h 84% 0.0 mm
20:30 4.7 °C 3.0 °C 1001.9 hPa WSW 10.1 km/h 13.0 km/h 85% 0.0 mm
20:40 4.4 °C 2.0 °C 1001.9 hPa WSW 9.7 km/h 13.0 km/h 85% 0.0 mm
20:50 4.4 °C 3.0 °C 1001.9 hPa Calm   12.6 km/h 87% 0.0 mm
21:00 4.3 °C 3.0 °C 1002.9 hPa WSW 8.7 km/h 10.8 km/h 87% 0.0 mm
21:10 4.3 °C 3.0 °C 1002.9 hPa WSW 8.7 km/h 10.8 km/h 87% 0.0 mm
21:20 4.3 °C 3.0 °C 1001.9 hPa WSW 8.7 km/h 10.8 km/h 87% 0.0 mm
21:30 4.3 °C 3.0 °C 1002.9 hPa WSW 8.7 km/h 10.8 km/h 87% 0.0 mm
21:40 4.3 °C 3.0 °C 1002.9 hPa WSW 9.7 km/h 9.7 km/h 87% 0.0 mm
21:50 4.3 °C 3.0 °C 1002.9 hPa WSW 9.7 km/h 9.7 km/h 87% 0.0 mm
22:00 4.3 °C 3.0 °C 1002.9 hPa WSW 9.7 km/h 9.7 km/h 87% 0.0 mm
22:10 4.3 °C 3.0 °C 1002.9 hPa WSW 9.7 km/h 9.7 km/h 87% 0.0 mm
22:20 4.3 °C 3.0 °C 1002.9 hPa WSW 9.7 km/h 9.7 km/h 87% 0.0 mm
22:30 4.3 °C 3.0 °C 1002.9 hPa WSW 9.7 km/h 9.7 km/h 87% 0.0 mm
22:40 4.3 °C 3.0 °C 1002.9 hPa WSW 9.7 km/h 9.7 km/h 87% 0.0 mm
22:50 4.3 °C 3.0 °C 1002.9 hPa WSW 9.7 km/h 9.7 km/h 87% 0.0 mm
23:00 4.3 °C 3.0 °C 1002.9 hPa WSW 9.7 km/h 9.7 km/h 87% 0.0 mm
23:10 4.3 °C 3.0 °C 1002.9 hPa WSW 9.7 km/h 9.7 km/h 87% 0.0 mm
23:20 4.3 °C 3.0 °C 1002.9 hPa WSW 9.7 km/h 9.7 km/h 87% 0.0 mm
23:30 4.3 °C 3.0 °C 1002.9 hPa WSW 9.7 km/h 9.7 km/h 87% 0.0 mm
23:40 4.3 °C 3.0 °C 1002.9 hPa WSW 9.7 km/h 9.7 km/h 87% 0.0 mm
23:50 4.3 °C 3.0 °C 1002.9 hPa WSW 9.7 km/h 9.7 km/h 87% 0.0 mm
Données Historique de Météo Turbie

Mise a jour : 18/06/2018 01:51:13
Généré par Cumulus 1.9.4 (1099)